#timestamp,LO_Frequency,Hit,StdDev 
1599822015.1,286046993.7,N
1599822035.9,286046994.1,N
1599822055.7,286046991.9,Y
1599822075.6,286046995.2,P
1599822095.4,286046995.4,P
1599822115.2,286046994.9,P
1599822135.1,286046995.2,Y
1599822136.0,286046995.2,P
1599822155.8,286047002.7,P
1599822175.7,286047001.0,N
1599822195.5,286047000.6,N
1599822215.3,286047000.1,N
1599822235.2,286047002.0,N
1599822255.0,286047002.7,N
1599822255.9,286047002.7,N
1599822275.7,286046998.6,N
1599822295.6,286046998.4,N
1599822315.4,286046998.2,N
1599822335.3,286047000.3,N
1599822355.1,286047000.2,N
1599822356.0,286047000.2,N
1599822375.8,286047002.1,N
1599822395.7,286047002.4,N
1599822415.5,286047002.4,N
1599822435.3,286047004.4,N
1599822455.2,286047003.9,N
1599822475.0,286047005.3,N
1599822475.9,286047005.3,N
1599822495.8,286047005.1,N
1599822515.6,286047007.1,N
1599822535.4,286047011.5,Y
1599822555.3,286047010.2,P
1599822575.1,286047009.6,N
1599822595.9,286047006.4,N
1599822615.7,286047009.1,N
1599822635.5,286047008.5,N
1599822655.4,286047005.1,N
1599822675.2,286047005.8,N
1599822695.0,286047003.1,N
1599822695.9,286047003.1,N
1599822715.8,286047006.0,N
1599822735.6,286047003.3,N
1599822755.5,286047007.4,N
1599822775.3,286047007.2,N
1599822795.1,286047005.6,N
1599822815.9,286047003.5,N
1599822835.7,286047004.0,N
1599822855.5,286047001.8,N
1599822875.4,286047003.9,N
1599822895.2,286047003.8,N
1599822915.1,286047003.9,N
1599822916.0,286047003.9,N
1599822935.8,286047002.7,N
1599822955.6,286047002.8,N
1599822975.5,286047002.4,N
1599822995.3,286047001.8,N
1599823015.2,286047003.9,N
1599823035.9,286047002.2,N
1599823055.7,286047000.1,N
1599823075.6,286047001.0,N
1599823095.4,286047001.0,N
1599823115.2,286047002.6,N
1599823135.1,286047002.2,N
1599823136.0,286047002.2,N
1599823155.8,286047004.4,N
1599823175.7,286047001.3,N
1599823195.5,286047002.3,N
1599823215.3,286047000.1,N
1599823235.2,286046998.3,N
1599823255.0,286047000.7,N
1599823255.9,286047000.7,N
1599823275.7,286047001.9,N
1599823295.6,286047001.5,N
1599823315.4,286047001.3,N
1599823335.3,286047004.0,N
1599823355.1,286047002.7,N
1599823375.8,286047002.4,N
1599823395.7,286047004.0,N
1599823415.5,286047002.7,N
1599823435.4,286047003.9,N
1599823455.2,286047001.6,N
1599823475.0,286046999.7,N
1599823475.9,286046999.7,N
1599823495.8,286047001.5,N
1599823515.6,286047002.0,N
1599823535.4,286047001.5,N
1599823555.3,286047001.5,N
1599823575.1,286046999.7,N
1599823595.9,286047000.6,N
1599823615.7,286046998.5,N
1599823635.5,286046999.2,N
1599823655.4,286046995.4,N
1599823675.2,286046996.7,N
1599823695.1,286046995.6,N
1599823696.0,286046995.6,N
1599823715.8,286046994.6,N
1599823735.6,286046992.0,Y
1599823755.5,286046996.0,P
1599823775.3,286046996.8,N
1599823795.1,286046996.7,N
1599823815.9,286046997.0,N
1599823835.7,286046997.2,N
1599823855.6,286046999.2,N
1599823875.4,286046998.7,N
1599823895.2,286046999.5,N
1599823915.1,286046994.9,Y
1599823916.0,286046994.9,P
1599823935.8,286046998.0,N
1599823955.7,286046995.5,P
1599823975.5,286046994.6,Y
1599823995.3,286046996.5,P
1599824015.2,286046999.1,P
1599824035.0,286047002.4,N
1599824035.9,286047002.4,N
1599824055.7,286047001.8,N
1599824075.6,286047002.7,N
1599824095.4,286047000.6,N
1599824115.3,286046998.9,N
1599824135.1,286046996.9,N
1599824155.8,286046999.5,N
1599824175.7,286046998.1,N
1599824195.5,286046994.9,N
1599824215.3,286046993.9,N
1599824235.2,286046992.1,N
1599824255.0,286046992.5,N
1599824255.9,286046992.5,N
1599824275.8,286046992.3,N
1599824295.6,286046992.3,N
1599824315.4,286046994.4,N
1599824335.3,286046991.7,N
1599824355.1,286046994.3,N
1599824375.9,286046994.0,N
1599824395.7,286046993.6,N
1599824415.5,286046994.3,N
1599824435.4,286046992.0,N
1599824455.2,286046992.6,N
1599824475.0,286046992.1,N
1599824475.9,286046992.1,N
1599824495.8,286046992.2,N
1599824515.6,286046992.7,N
1599824535.5,286046990.2,N
1599824555.3,286046991.0,N
1599824575.1,286046991.5,N
1599824595.9,286046992.0,N
1599824615.7,286046991.9,N
1599824635.5,286046992.9,N
1599824655.4,286046990.1,Y
1599824675.2,286046997.1,P
1599824695.1,286046996.8,N
1599824696.0,286046996.8,N
1599824715.8,286046997.1,N
1599824735.6,286046996.8,N
1599824755.5,286046996.9,N
1599824775.3,286046998.7,N
1599824795.2,286046999.2,N
1599824815.9,286046998.4,N
1599824835.7,286046998.6,N
1599824855.6,286046998.9,N
1599824875.4,286046999.4,N
1599824895.2,286046998.1,N
1599824915.1,286046998.3,N
1599824916.0,286046998.3,N
1599824935.8,286046998.4,N
1599824955.7,286047004.4,Y
1599824975.5,286047005.2,P
1599825025.4,286047002.9,E
1599825035.3,286047001.8,N
1599825055.1,286047002.8,P
1599825075.9,286047004.4,P
1599825095.7,286047003.2,N
1599825115.5,286047007.6,Y
1599825135.4,286047005.3,P
1599825155.2,286047005.6,P
1599825175.1,286047003.9,P
1599825176.0,286047003.9,Y
1599825195.8,286047001.0,P
1599825215.6,286047002.4,N
1599825235.5,286047000.3,N
1599825255.3,286047004.4,N
1599825275.2,286047002.6,N
1599825295.9,286046999.8,N
1599825315.7,286047001.3,N
1599825335.6,286047003.2,N
1599825355.4,286047001.4,N
1599825375.2,286047001.4,N
1599825395.1,286047003.7,N
1599825396.0,286047003.7,N
1599825415.8,286047007.2,Y
1599825435.7,286047004.3,P
1599825455.5,286047001.9,N
1599825475.3,286047002.1,N
1599825495.2,286047004.2,Y
1599825545.1,286047004.6,E
1599825555.9,286047005.4,N
1599825575.7,286047001.6,P
1599825595.6,286047000.5,N
